1994-01-01 03:00:00,1.49,-1.99
1994-01-01 06:00:00,1.50,-1.62
1994-01-01 09:00:00,1.58,-4.00
1994-01-01 12:00:00,2.61,-7.62
1994-01-01 15:00:00,2.51,-6.86
1994-01-01 18:00:00,1.45,-4.28
1994-01-01 21:00:00,1.47,-1.47
1994-01-02 00:00:00,1.45,-1.46
1994-01-02 03:00:00,1.52,-2.77
1994-01-02 06:00:00,1.55,-3.67
1994-01-02 09:00:00,1.44,-6.62
1994-01-02 12:00:00,3.44,-15.70
1994-01-02 15:00:00,3.21,-23.72
1994-01-02 18:00:00,1.58,-28.94
1994-01-02 21:00:00,1.56,-12.15
1994-01-03 00:00:00,1.54,-11.64
1994-01-03 03:00:00,1.44,-5.28
1994-01-03 06:00:00,1.43,-5.38
1994-01-03 09:00:00,1.44,-11.81
1994-01-03 12:00:00,3.35,-38.63
1994-01-03 15:00:00,3.44,-30.34
1994-01-03 18:00:00,1.43,-1.84
1994-01-03 21:00:00,1.43,-2.33
1994-01-04 00:00:00,1.43,-3.02
1994-01-04 03:00:00,1.43,-3.29
1994-01-04 06:00:00,1.43,-5.66
1994-01-04 09:00:00,1.43,-27.21
1994-01-04 12:00:00,4.54,-39.40
1994-01-04 15:00:00,3.67,-34.90
1994-01-04 18:00:00,1.52,-43.30
1994-01-04 21:00:00,1.57,-50.97
1994-01-05 00:00:00,1.57,-54.73
1994-01-05 03:00:00,1.44,-46.06
1994-01-05 06:00:00,1.44,-46.29
1994-01-05 09:00:00,1.43,-44.55
1994-01-05 12:00:00,3.27,-40.04
1994-01-05 15:00:00,3.13,-21.70
1994-01-05 18:00:00,1.44,-27.37
1994-01-05 21:00:00,1.61,-33.27
1994-01-06 00:00:00,1.56,-16.14
1994-01-06 03:00:00,1.48,-27.57
1994-01-06 06:00:00,1.59,-15.12
1994-01-06 09:00:00,1.44,-0.59
1994-01-06 12:00:00,2.31,-0.23
1994-01-06 15:00:00,2.59,-3.06
1994-01-06 18:00:00,1.50,-3.42
1994-01-06 21:00:00,1.49,-2.39
1994-01-07 00:00:00,1.44,-1.91
1994-01-07 03:00:00,1.44,-3.87
1994-01-07 06:00:00,1.46,-3.98
1994-01-07 09:00:00,1.61,-5.81
1994-01-07 12:00:00,3.08,-1.86
1994-01-07 15:00:00,2.75,-0.08
1994-01-07 18:00:00,1.48,-0.17
1994-01-07 21:00:00,1.48,-0.59
1994-01-08 00:00:00,1.45,-0.14
1994-01-08 03:00:00,1.48,0.31
1994-01-08 06:00:00,1.61,0.26
1994-01-08 09:00:00,1.47,0.24
1994-01-08 12:00:00,2.56,-0.90
1994-01-08 15:00:00,2.52,-1.72
1994-01-08 18:00:00,1.44,-35.14
1994-01-08 21:00:00,1.43,-9.78
1994-01-09 00:00:00,1.43,-7.35
1994-01-09 03:00:00,1.43,-5.01
1994-01-09 06:00:00,1.43,-3.61
1994-01-09 09:00:00,1.43,-2.55
1994-01-09 12:00:00,4.52,-5.32
1994-01-09 15:00:00,2.96,-3.33
1994-01-09 18:00:00,1.25,-2.47
1994-01-09 21:00:00,1.37,-2.88
1994-01-10 00:00:00,1.33,-3.70
1994-01-10 03:00:00,1.19,-6.94
1994-01-10 06:00:00,1.27,-23.45
1994-01-10 09:00:00,1.35,-38.03
1994-01-10 12:00:00,4.12,-43.17
1994-01-10 15:00:00,3.90,-32.19
1994-01-10 18:00:00,1.42,-24.54
1994-01-10 21:00:00,1.34,-42.38
1994-01-11 00:00:00,1.36,-46.03
1994-01-11 03:00:00,1.42,-41.09
1994-01-11 06:00:00,1.51,-42.36
1994-01-11 09:00:00,1.60,-41.84
1994-01-11 12:00:00,3.99,-41.21
1994-01-11 15:00:00,3.78,-41.65
1994-01-11 18:00:00,1.59,-37.63
1994-01-11 21:00:00,1.48,-29.40
1994-01-12 00:00:00,1.43,-16.34
1994-01-12 03:00:00,1.43,-13.64
1994-01-12 06:00:00,1.54,-34.77
1994-01-12 09:00:00,1.66,-27.94
1994-01-12 12:00:00,4.88,-14.37
1994-01-12 15:00:00,3.80,-10.03
1994-01-12 18:00:00,1.42,-13.19
1994-01-12 21:00:00,1.43,-0.29
1994-01-13 00:00:00,1.43,-0.98
1994-01-13 03:00:00,1.43,1.47
1994-01-13 06:00:00,1.43,-1.68
1994-01-13 09:00:00,1.44,-8.59
1994-01-13 12:00:00,2.62,-1.79
1994-01-13 15:00:00,2.55,0.88
1994-01-13 18:00:00,1.43,0.55
1994-01-13 21:00:00,1.43,0.80
1994-01-14 00:00:00,1.44,0.27
1994-01-14 03:00:00,1.53,-1.33
1994-01-14 06:00:00,1.46,-0.26
1994-01-14 09:00:00,1.51,2.90
1994-01-14 12:00:00,3.04,2.88
1994-01-14 15:00:00,3.40,2.73
1994-01-14 18:00:00,1.45,-6.53
1994-01-14 21:00:00,1.43,-9.81
1994-01-15 00:00:00,1.43,-15.22
1994-01-15 03:00:00,1.43,-21.21
1994-01-15 06:00:00,1.53,-25.52
1994-01-15 09:00:00,1.43,-1.27
1994-01-15 12:00:00,5.11,-2.52
1994-01-15 15:00:00,5.73,-47.13
1994-01-15 18:00:00,1.43,-49.62
1994-01-15 21:00:00,1.44,-45.79
1994-01-16 00:00:00,1.44,-46.89
1994-01-16 03:00:00,1.43,-50.46
1994-01-16 06:00:00,1.44,-46.32
1994-01-16 09:00:00,1.47,-34.14
1994-01-16 12:00:00,6.61,-48.38
1994-01-16 15:00:00,6.54,-46.78
1994-01-16 18:00:00,1.45,-35.52
1994-01-16 21:00:00,1.55,-40.76
1994-01-17 00:00:00,1.59,-53.83
1994-01-17 03:00:00,1.53,-24.04
1994-01-17 06:00:00,1.53,-47.84
1994-01-17 09:00:00,1.46,-49.98
1994-01-17 12:00:00,6.47,-40.16
1994-01-17 15:00:00,5.78,-6.07
1994-01-17 18:00:00,1.43,-8.52
1994-01-17 21:00:00,1.44,-49.02
1994-01-18 00:00:00,1.43,-41.98
1994-01-18 03:00:00,1.49,-8.57
1994-01-18 06:00:00,1.56,-6.32
1994-01-18 09:00:00,1.51,-3.74
1994-01-18 12:00:00,8.70,-7.64
1994-01-18 15:00:00,7.85,-12.87
1994-01-18 18:00:00,1.58,-9.88
1994-01-18 21:00:00,1.52,-16.68
1994-01-19 00:00:00,1.51,-34.14
1994-01-19 03:00:00,1.67,-32.16
1994-01-19 06:00:00,1.64,-36.82
1994-01-19 09:00:00,1.65,-37.14
1994-01-19 12:00:00,6.08,-26.75
1994-01-19 15:00:00,6.12,-9.61
1994-01-19 18:00:00,1.44,-1.33
1994-01-19 21:00:00,1.45,-0.21
1994-01-20 00:00:00,1.43,-0.20
1994-01-20 03:00:00,1.43,-0.27
1994-01-20 06:00:00,1.42,-0.25
1994-01-20 09:00:00,1.43,0.90
1994-01-20 12:00:00,5.67,0.85
1994-01-20 15:00:00,7.13,-1.31
1994-01-20 18:00:00,1.44,-17.57
1994-01-20 21:00:00,1.43,-27.33
1994-01-21 00:00:00,1.43,-37.67
1994-01-21 03:00:00,1.43,-18.27
1994-01-21 06:00:00,1.43,-2.23
1994-01-21 09:00:00,1.43,0.88
1994-01-21 12:00:00,3.69,-0.46
1994-01-21 15:00:00,4.53,-2.39
1994-01-21 18:00:00,1.31,-1.88
1994-01-21 21:00:00,1.43,-1.16
1994-01-22 00:00:00,1.43,-1.33
1994-01-22 03:00:00,1.54,-1.53
1994-01-22 06:00:00,1.65,-2.02
1994-01-22 09:00:00,1.57,-3.04
1994-01-22 12:00:00,6.99,-2.04
1994-01-22 15:00:00,8.04,-2.50
1994-01-22 18:00:00,1.30,-2.56
1994-01-22 21:00:00,1.28,-4.00
1994-01-23 00:00:00,1.34,-4.60
1994-01-23 03:00:00,1.32,-10.44
1994-01-23 06:00:00,1.37,-53.65
1994-01-23 09:00:00,1.42,-51.94
1994-01-23 12:00:00,9.93,-47.70
1994-01-23 15:00:00,7.78,-45.91
1994-01-23 18:00:00,1.54,-35.67
1994-01-23 21:00:00,1.67,-35.39
1994-01-24 00:00:00,1.67,-28.60
1994-01-24 03:00:00,1.65,-36.52
1994-01-24 06:00:00,1.67,-38.25
1994-01-24 09:00:00,1.67,-31.08
1994-01-24 12:00:00,10.04,-19.28
1994-01-24 15:00:00,9.49,-16.30
1994-01-24 18:00:00,1.51,-21.31
1994-01-24 21:00:00,1.49,-29.54
1994-01-25 00:00:00,1.51,-33.88
1994-01-25 03:00:00,1.61,-39.73
1994-01-25 06:00:00,1.66,-38.90
1994-01-25 09:00:00,1.56,-19.90
1994-01-25 12:00:00,13.71,-19.64
1994-01-25 15:00:00,14.85,-23.60
1994-01-25 18:00:00,1.57,-20.38
1994-01-25 21:00:00,1.65,-39.22
1994-01-26 00:00:00,1.67,-39.79
1994-01-26 03:00:00,1.67,-40.18
1994-01-26 06:00:00,1.67,-42.46
1994-01-26 09:00:00,1.72,-43.13
1994-01-26 12:00:00,12.21,-45.11
1994-01-26 15:00:00,11.42,-42.40
1994-01-26 18:00:00,1.73,-43.15
1994-01-26 21:00:00,1.67,-44.20
1994-01-27 00:00:00,1.67,-42.98
1994-01-27 03:00:00,1.67,-42.13
1994-01-27 06:00:00,1.66,-39.84
1994-01-27 09:00:00,1.73,-40.93
1994-01-27 12:00:00,14.38,-35.04
1994-01-27 15:00:00,12.78,-35.14
1994-01-27 18:00:00,1.80,-24.86
1994-01-27 21:00:00,1.70,-10.39
1994-01-28 00:00:00,1.84,-13.86
1994-01-28 03:00:00,1.70,-12.35
1994-01-28 06:00:00,1.67,-16.46
1994-01-28 09:00:00,1.75,-25.97
1994-01-28 12:00:00,17.30,-24.75
1994-01-28 15:00:00,12.25,-36.14
1994-01-28 18:00:00,1.78,-43.04
1994-01-28 21:00:00,1.66,-41.55
1994-01-29 00:00:00,1.67,-43.66
1994-01-29 03:00:00,1.67,-46.52
1994-01-29 06:00:00,1.64,-42.81
1994-01-29 09:00:00,1.65,-30.80
1994-01-29 12:00:00,31.33,-3.53
1994-01-29 15:00:00,21.26,-1.88
1994-01-29 18:00:00,1.75,-20.15
1994-01-29 21:00:00,1.66,-28.81
1994-01-30 00:00:00,1.63,-8.80
1994-01-30 03:00:00,1.64,-19.66
1994-01-30 06:00:00,1.67,-10.08
1994-01-30 09:00:00,1.74,-7.26
1994-01-30 12:00:00,14.51,-6.87
1994-01-30 15:00:00,13.44,-0.11
1994-01-30 18:00:00,1.75,-0.83
1994-01-30 21:00:00,1.66,-1.64
1994-01-31 00:00:00,1.57,-5.07
1994-01-31 03:00:00,1.66,-3.05
1994-01-31 06:00:00,1.54,-1.54
1994-01-31 09:00:00,1.56,-0.57
1994-01-31 12:00:00,10.43,-2.57
1994-01-31 15:00:00,13.81,-6.18
1994-01-31 18:00:00,1.93,-20.83
1994-01-31 21:00:00,1.60,-36.97
1994-02-01 00:00:00,1.66,-38.23
1994-02-01 03:00:00,1.64,-40.35
1994-02-01 06:00:00,1.67,-39.87
1994-02-01 09:00:00,1.92,-41.13
1994-02-01 12:00:00,20.67,-51.44
1994-02-01 15:00:00,15.23,-41.24
1994-02-01 18:00:00,2.02,-42.69
1994-02-01 21:00:00,1.66,-41.54
1994-02-02 00:00:00,1.67,-40.28
1994-02-02 03:00:00,1.67,-39.53
1994-02-02 06:00:00,1.67,-31.80
1994-02-02 09:00:00,2.04,-15.05
1994-02-02 12:00:00,24.21,-13.61
1994-02-02 15:00:00,16.20,-10.08
1994-02-02 18:00:00,2.17,-8.56
1994-02-02 21:00:00,1.67,-7.26
1994-02-03 00:00:00,1.70,-7.07
1994-02-03 03:00:00,1.80,-7.64
1994-02-03 06:00:00,1.75,-8.01
1994-02-03 09:00:00,2.16,-10.81
1994-02-03 12:00:00,28.54,-16.33
1994-02-03 15:00:00,16.82,-26.04
1994-02-03 18:00:00,2.29,-35.18
1994-02-03 21:00:00,1.59,-45.39
1994-02-04 00:00:00,1.64,-39.84
1994-02-04 03:00:00,1.57,-21.70
1994-02-04 06:00:00,1.63,-19.38
1994-02-04 09:00:00,2.08,-2.15
1994-02-04 12:00:00,19.99,-0.14
1994-02-04 15:00:00,20.67,-1.69
1994-02-04 18:00:00,2.33,-4.20
1994-02-04 21:00:00,1.68,-17.85
1994-02-05 00:00:00,1.64,-12.94
1994-02-05 03:00:00,1.66,-8.75
1994-02-05 06:00:00,1.67,-7.32
1994-02-05 09:00:00,2.22,-12.28
1994-02-05 12:00:00,38.85,-20.52
1994-02-05 15:00:00,26.75,-32.10
1994-02-05 18:00:00,2.35,-44.99
1994-02-05 21:00:00,1.53,-50.99
1994-02-06 00:00:00,1.67,-40.43
1994-02-06 03:00:00,1.66,-40.28
1994-02-06 06:00:00,1.63,-38.79
1994-02-06 09:00:00,2.36,-35.48
1994-02-06 12:00:00,28.71,-43.01
1994-02-06 15:00:00,18.60,-37.43
1994-02-06 18:00:00,2.55,-41.56
1994-02-06 21:00:00,1.55,-42.50
1994-02-07 00:00:00,1.50,-43.35
1994-02-07 03:00:00,1.60,-43.52
1994-02-07 06:00:00,1.61,-41.85
1994-02-07 09:00:00,2.67,-35.28
1994-02-07 12:00:00,41.11,-46.36
1994-02-07 15:00:00,40.37,-28.65
1994-02-07 18:00:00,3.19,-20.99
1994-02-07 21:00:00,1.52,-19.62
1994-02-08 00:00:00,1.47,-14.09
1994-02-08 03:00:00,1.65,-3.43
1994-02-08 06:00:00,1.66,-17.37
1994-02-08 09:00:00,2.55,-6.78
1994-02-08 12:00:00,35.35,-22.35
1994-02-08 15:00:00,40.88,-17.47
1994-02-08 18:00:00,2.90,-22.14
1994-02-08 21:00:00,1.61,-4.50
1994-02-09 00:00:00,1.65,-20.85
1994-02-09 03:00:00,1.60,-38.46
1994-02-09 06:00:00,1.60,-37.07
1994-02-09 09:00:00,2.73,-9.20
1994-02-09 12:00:00,25.84,1.87
1994-02-09 15:00:00,26.58,1.29
1994-02-09 18:00:00,2.87,-4.83
1994-02-09 21:00:00,1.67,-2.30
1994-02-10 00:00:00,1.67,0.12
1994-02-10 03:00:00,1.67,0.91
1994-02-10 06:00:00,1.75,0.82
1994-02-10 09:00:00,2.48,0.77
1994-02-10 12:00:00,19.16,-1.13
1994-02-10 15:00:00,22.29,-1.45
1994-02-10 18:00:00,2.69,0.11
1994-02-10 21:00:00,1.67,-0.48
1994-02-11 00:00:00,1.67,0.27
1994-02-11 03:00:00,1.62,0.89
1994-02-11 06:00:00,1.67,1.32
1994-02-11 09:00:00,2.85,0.66
1994-02-11 12:00:00,29.84,0.40
1994-02-11 15:00:00,33.62,-6.31
1994-02-11 18:00:00,3.52,-18.85
1994-02-11 21:00:00,1.49,-26.78
1994-02-12 00:00:00,1.62,-40.26
1994-02-12 03:00:00,1.66,-23.34
1994-02-12 06:00:00,1.66,-32.90
1994-02-12 09:00:00,4.16,-25.94
1994-02-12 12:00:00,46.02,-24.94
1994-02-12 15:00:00,44.66,-31.26
1994-02-12 18:00:00,3.46,-33.96
1994-02-12 21:00:00,1.52,-28.79
1994-02-13 00:00:00,1.44,-13.77
1994-02-13 03:00:00,1.60,-8.94
1994-02-13 06:00:00,1.48,-6.70
1994-02-13 09:00:00,2.98,-5.63
1994-02-13 12:00:00,34.68,-3.98
1994-02-13 15:00:00,38.27,-6.79
1994-02-13 18:00:00,3.43,-10.29
1994-02-13 21:00:00,1.45,-12.48
1994-02-14 00:00:00,1.43,-11.72
1994-02-14 03:00:00,1.43,-12.13
1994-02-14 06:00:00,1.43,-6.56
1994-02-14 09:00:00,2.48,-2.25
1994-02-14 12:00:00,28.47,2.24
1994-02-14 15:00:00,32.41,1.84
1994-02-14 18:00:00,4.25,-7.71
1994-02-14 21:00:00,1.27,-8.80
1994-02-15 00:00:00,1.34,-4.22
1994-02-15 03:00:00,1.29,-2.63
1994-02-15 06:00:00,1.25,-2.36
1994-02-15 09:00:00,2.34,-1.66
1994-02-15 12:00:00,16.72,-3.49
1994-02-15 15:00:00,37.49,3.17
1994-02-15 18:00:00,3.15,-5.53
1994-02-15 21:00:00,1.19,-5.75
1994-02-16 00:00:00,1.19,-1.84
1994-02-16 03:00:00,1.27,-12.07
1994-02-16 06:00:00,1.27,-37.21
1994-02-16 09:00:00,4.64,-47.70
1994-02-16 12:00:00,94.50,-30.58
1994-02-16 15:00:00,69.99,-53.97
1994-02-16 18:00:00,5.83,-29.16
1994-02-16 21:00:00,1.19,-10.88
1994-02-17 00:00:00,1.19,-18.23
1994-02-17 03:00:00,1.19,-14.40
1994-02-17 06:00:00,1.19,-8.77
1994-02-17 09:00:00,5.41,-7.18
1994-02-17 12:00:00,53.93,-11.46
1994-02-17 15:00:00,75.10,-2.23
1994-02-17 18:00:00,5.80,-24.13
1994-02-17 21:00:00,1.19,-30.69
1994-02-18 00:00:00,1.19,-12.18
1994-02-18 03:00:00,1.19,-16.50
1994-02-18 06:00:00,1.19,-7.18
1994-02-18 09:00:00,2.79,-1.65
1994-02-18 12:00:00,50.12,3.39
1994-02-18 15:00:00,38.13,4.36
1994-02-18 18:00:00,3.89,-1.30
1994-02-18 21:00:00,1.29,-5.25
1994-02-19 00:00:00,1.29,-52.28
1994-02-19 03:00:00,1.21,-61.34
1994-02-19 06:00:00,1.36,-45.00
1994-02-19 09:00:00,3.99,-22.59
1994-02-19 12:00:00,35.72,-1.09
1994-02-19 15:00:00,49.10,2.51
1994-02-19 18:00:00,7.52,-5.38
1994-02-19 21:00:00,1.40,-5.21
1994-02-20 00:00:00,1.41,-3.90
1994-02-20 03:00:00,1.41,-2.95
1994-02-20 06:00:00,1.42,-1.13
1994-02-20 09:00:00,3.77,-2.11
1994-02-20 12:00:00,16.57,-3.98
1994-02-20 15:00:00,32.71,-4.67
1994-02-20 18:00:00,5.30,-10.13
1994-02-20 21:00:00,1.32,-13.18
1994-02-21 00:00:00,1.33,-22.09
1994-02-21 03:00:00,1.29,-40.06
1994-02-21 06:00:00,1.44,-51.13
1994-02-21 09:00:00,13.03,-38.81
1994-02-21 12:00:00,118.50,7.81
1994-02-21 15:00:00,73.40,-5.35
1994-02-21 18:00:00,9.09,-10.13
1994-02-21 21:00:00,1.46,-25.58
1994-02-22 00:00:00,1.54,-27.13
1994-02-22 03:00:00,1.47,-28.18
1994-02-22 06:00:00,1.47,-36.93
1994-02-22 09:00:00,5.99,-41.79
1994-02-22 12:00:00,80.70,-48.80
1994-02-22 15:00:00,94.10,-23.04
1994-02-22 18:00:00,5.49,-5.39
1994-02-22 21:00:00,1.21,-3.24
1994-02-23 00:00:00,1.25,-9.63
1994-02-23 03:00:00,1.34,-17.84
1994-02-23 06:00:00,1.37,-15.46
1994-02-23 09:00:00,15.33,-15.38
1994-02-23 12:00:00,85.10,-19.34
1994-02-23 15:00:00,121.20,-63.85
1994-02-23 18:00:00,8.44,-37.21
1994-02-23 21:00:00,1.61,-29.16
1994-02-24 00:00:00,1.60,-12.78
1994-02-24 03:00:00,1.60,-25.20
1994-02-24 06:00:00,1.45,-14.59
1994-02-24 09:00:00,6.93,-11.25
1994-02-24 12:00:00,53.77,-2.90
1994-02-24 15:00:00,63.52,-5.32
1994-02-24 18:00:00,10.38,-14.77
1994-02-24 21:00:00,1.53,-35.90
1994-02-25 00:00:00,1.52,-43.81
1994-02-25 03:00:00,1.52,-21.21
1994-02-25 06:00:00,1.48,-23.71
1994-02-25 09:00:00,8.66,-19.22
1994-02-25 12:00:00,114.10,-12.19
1994-02-25 15:00:00,97.60,0.13
1994-02-25 18:00:00,8.27,-1.79
1994-02-25 21:00:00,1.38,-7.94
1994-02-26 00:00:00,1.38,-3.37
1994-02-26 03:00:00,1.36,-6.03
1994-02-26 06:00:00,1.33,-15.58
1994-02-26 09:00:00,10.18,-43.40
1994-02-26 12:00:00,99.00,-39.99
1994-02-26 15:00:00,127.30,-88.80
1994-02-26 18:00:00,11.81,-41.81
1994-02-26 21:00:00,1.45,-45.16
1994-02-27 00:00:00,1.43,-45.11
1994-02-27 03:00:00,1.45,-44.77
1994-02-27 06:00:00,1.41,-38.58
1994-02-27 09:00:00,13.14,-29.87
1994-02-27 12:00:00,123.70,-17.98
1994-02-27 15:00:00,118.00,-51.37
1994-02-27 18:00:00,12.09,-33.89
1994-02-27 21:00:00,1.57,-36.84
1994-02-28 00:00:00,1.63,-38.99
1994-02-28 03:00:00,1.59,-37.22
1994-02-28 06:00:00,1.51,-38.70
1994-02-28 09:00:00,16.85,-39.75
1994-02-28 12:00:00,135.00,-27.41
1994-02-28 15:00:00,132.50,-31.90
1994-02-28 18:00:00,15.02,-9.47
1994-02-28 21:00:00,1.46,-5.08
1994-03-01 00:00:00,1.45,-3.00
1994-03-01 03:00:00,1.44,-1.50
1994-03-01 06:00:00,1.43,-2.03
1994-03-01 09:00:00,16.47,-3.48
1994-03-01 12:00:00,152.40,4.91
1994-03-01 15:00:00,189.30,8.48
1994-03-01 18:00:00,23.76,-9.58
1994-03-01 21:00:00,1.19,-27.03
1994-03-02 00:00:00,1.19,-40.35
1994-03-02 03:00:00,1.29,-46.56
1994-03-02 06:00:00,1.42,-44.89
1994-03-02 09:00:00,19.68,-36.40
1994-03-02 12:00:00,149.60,-9.99
1994-03-02 15:00:00,156.70,-77.00
1994-03-02 18:00:00,11.48,-41.24
1994-03-02 21:00:00,1.45,-43.92
1994-03-03 00:00:00,1.49,-46.03
1994-03-03 03:00:00,1.43,-53.70
1994-03-03 06:00:00,1.50,-54.83
1994-03-03 09:00:00,20.31,-44.02
1994-03-03 12:00:00,175.10,0.95
1994-03-03 15:00:00,110.10,-36.53
1994-03-03 18:00:00,15.86,-18.12
1994-03-03 21:00:00,1.66,-16.38
1994-03-04 00:00:00,1.55,-23.28
1994-03-04 03:00:00,1.47,-12.82
1994-03-04 06:00:00,1.66,-2.61
1994-03-04 09:00:00,17.28,-4.89
1994-03-04 12:00:00,94.90,3.18
1994-03-04 15:00:00,112.10,-14.09
1994-03-04 18:00:00,15.15,-18.05
1994-03-04 21:00:00,1.44,-44.53
1994-03-05 00:00:00,1.47,-43.34
1994-03-05 03:00:00,1.51,-26.18
1994-03-05 06:00:00,1.47,-13.41
1994-03-05 09:00:00,15.24,-7.81
1994-03-05 12:00:00,59.44,-5.29
1994-03-05 15:00:00,75.10,1.17
1994-03-05 18:00:00,14.75,0.33
1994-03-05 21:00:00,1.53,-0.11
1994-03-06 00:00:00,1.44,-0.15
1994-03-06 03:00:00,1.43,-0.29
1994-03-06 06:00:00,1.43,-0.40
1994-03-06 09:00:00,16.85,-0.61
1994-03-06 12:00:00,69.29,-5.18
1994-03-06 15:00:00,54.82,-22.06
1994-03-06 18:00:00,16.64,-8.82
1994-03-06 21:00:00,1.44,-18.66
1994-03-07 00:00:00,1.54,-29.46
1994-03-07 03:00:00,1.45,-33.35
1994-03-07 06:00:00,1.64,-32.55
1994-03-07 09:00:00,25.32,-28.03
1994-03-07 12:00:00,169.20,-5.19
1994-03-07 15:00:00,206.50,-60.03
1994-03-07 18:00:00,16.96,-26.98
1994-03-07 21:00:00,1.56,-23.39
1994-03-08 00:00:00,1.49,-14.18
1994-03-08 03:00:00,1.48,-6.00
1994-03-08 06:00:00,1.49,-18.19
1994-03-08 09:00:00,32.16,-6.35
1994-03-08 12:00:00,102.90,-3.09
1994-03-08 15:00:00,107.30,-2.79
1994-03-08 18:00:00,29.35,-7.60
1994-03-08 21:00:00,1.43,-4.83
1994-03-09 00:00:00,1.47,-35.82
1994-03-09 03:00:00,1.46,-14.65
1994-03-09 06:00:00,1.45,0.31
1994-03-09 09:00:00,20.50,-6.25
1994-03-09 12:00:00,95.20,0.15
1994-03-09 15:00:00,174.60,-41.27
1994-03-09 18:00:00,17.13,-16.16
1994-03-09 21:00:00,1.44,-20.76
1994-03-10 00:00:00,1.46,-30.92
1994-03-10 03:00:00,1.43,-25.52
1994-03-10 06:00:00,1.43,-21.43
1994-03-10 09:00:00,31.42,-26.72
1994-03-10 12:00:00,150.70,-3.96
1994-03-10 15:00:00,150.10,-39.03
1994-03-10 18:00:00,23.53,-25.66
1994-03-10 21:00:00,1.43,-23.22
1994-03-11 00:00:00,1.43,-14.72
1994-03-11 03:00:00,1.43,-34.25
1994-03-11 06:00:00,1.48,-37.28
1994-03-11 09:00:00,84.40,-8.26
1994-03-11 12:00:00,109.80,-3.74
1994-03-11 15:00:00,123.10,-15.79
1994-03-11 18:00:00,26.46,-12.55
1994-03-11 21:00:00,1.46,-2.36
1994-03-12 00:00:00,1.43,-8.30
1994-03-12 03:00:00,1.43,-7.56
1994-03-12 06:00:00,1.44,-15.76
1994-03-12 09:00:00,38.27,-7.90
1994-03-12 12:00:00,175.00,-7.05
1994-03-12 15:00:00,176.40,-91.60
1994-03-12 18:00:00,27.94,-31.05
1994-03-12 21:00:00,1.51,-33.69
1994-03-13 00:00:00,1.43,-29.33
1994-03-13 03:00:00,1.43,-28.14
1994-03-13 06:00:00,1.44,-20.51
1994-03-13 09:00:00,49.96,-16.62
1994-03-13 12:00:00,220.60,0.54
1994-03-13 15:00:00,202.40,-70.90
1994-03-13 18:00:00,39.35,-22.88
1994-03-13 21:00:00,1.52,-27.61
1994-03-14 00:00:00,1.43,-30.91
1994-03-14 03:00:00,1.46,-34.61
1994-03-14 06:00:00,1.66,-26.09
1994-03-14 09:00:00,35.21,-13.24
1994-03-14 12:00:00,112.60,1.03
1994-03-14 15:00:00,177.50,-6.88
1994-03-14 18:00:00,28.44,-3.02
1994-03-14 21:00:00,1.61,-5.67
1994-03-15 00:00:00,1.45,-1.25
1994-03-15 03:00:00,1.49,-0.52
1994-03-15 06:00:00,1.47,5.62
1994-03-15 09:00:00,29.82,1.97
1994-03-15 12:00:00,119.80,-1.58
1994-03-15 15:00:00,133.10,-2.41
1994-03-15 18:00:00,36.74,-5.60
1994-03-15 21:00:00,1.59,-12.40
1994-03-16 00:00:00,1.48,-18.84
1994-03-16 03:00:00,1.51,-10.66
1994-03-16 06:00:00,1.57,-5.68
1994-03-16 09:00:00,59.13,-1.72
1994-03-16 12:00:00,198.70,1.73
1994-03-16 15:00:00,127.90,-11.38
1994-03-16 18:00:00,32.11,-25.06
1994-03-16 21:00:00,1.60,-31.12
1994-03-17 00:00:00,1.49,-27.85
1994-03-17 03:00:00,1.61,-35.09
1994-03-17 06:00:00,1.70,-36.21
1994-03-17 09:00:00,52.64,-30.73
1994-03-17 12:00:00,185.10,5.45
1994-03-17 15:00:00,145.10,-3.40
1994-03-17 18:00:00,48.08,-0.64
1994-03-17 21:00:00,1.59,1.94
1994-03-18 00:00:00,1.47,11.70
1994-03-18 03:00:00,1.53,9.29
1994-03-18 06:00:00,1.56,-25.97
1994-03-18 09:00:00,49.12,-13.87
1994-03-18 12:00:00,236.40,-4.26
1994-03-18 15:00:00,208.30,-16.48
1994-03-18 18:00:00,68.67,-3.56
1994-03-18 21:00:00,1.60,-10.70
1994-03-19 00:00:00,1.58,-15.35
1994-03-19 03:00:00,1.51,-17.65
1994-03-19 06:00:00,1.96,-8.40
1994-03-19 09:00:00,58.36,11.65
1994-03-19 12:00:00,169.00,18.57
1994-03-19 15:00:00,129.80,-7.12
1994-03-19 18:00:00,28.52,-6.54
1994-03-19 21:00:00,1.53,0.51
1994-03-20 00:00:00,1.43,-0.27
1994-03-20 03:00:00,1.43,0.79
1994-03-20 06:00:00,1.67,-0.08
1994-03-20 09:00:00,49.54,0.88
1994-03-20 12:00:00,193.10,-24.73
1994-03-20 15:00:00,210.80,-65.32
1994-03-20 18:00:00,70.80,-16.87
1994-03-20 21:00:00,1.74,-7.55
1994-03-21 00:00:00,1.47,-9.24
1994-03-21 03:00:00,1.49,-4.85
1994-03-21 06:00:00,2.20,-5.03
1994-03-21 09:00:00,42.32,-1.09
1994-03-21 12:00:00,167.00,4.06
1994-03-21 15:00:00,119.70,1.53
1994-03-21 18:00:00,32.71,-1.25
1994-03-21 21:00:00,1.82,-19.38
1994-03-22 00:00:00,1.44,-41.54
1994-03-22 03:00:00,1.43,-50.19
1994-03-22 06:00:00,2.10,-49.22
1994-03-22 09:00:00,67.48,-9.39
1994-03-22 12:00:00,257.30,21.91
1994-03-22 15:00:00,265.50,-92.10
1994-03-22 18:00:00,56.68,-29.23
1994-03-22 21:00:00,1.77,1.03
1994-03-23 00:00:00,1.43,-0.92
1994-03-23 03:00:00,1.43,-1.68
1994-03-23 06:00:00,2.48,-0.16
1994-03-23 09:00:00,45.80,-5.97
1994-03-23 12:00:00,124.40,-4.77
1994-03-23 15:00:00,87.90,1.87
1994-03-23 18:00:00,34.16,-0.79
1994-03-23 21:00:00,1.72,0.77
1994-03-24 00:00:00,1.43,0.59
1994-03-24 03:00:00,1.43,0.71
1994-03-24 06:00:00,1.85,0.61
1994-03-24 09:00:00,48.27,1.79
1994-03-24 12:00:00,130.80,3.79
1994-03-24 15:00:00,126.90,-2.70
1994-03-24 18:00:00,47.95,-4.66
1994-03-24 21:00:00,2.05,-4.23
1994-03-25 00:00:00,1.58,-16.27
1994-03-25 03:00:00,1.66,-20.03
1994-03-25 06:00:00,2.73,-22.37
1994-03-25 09:00:00,86.40,11.42
1994-03-25 12:00:00,236.20,5.88
1994-03-25 15:00:00,248.00,-53.90
1994-03-25 18:00:00,65.98,-30.49
1994-03-25 21:00:00,2.41,-12.54
1994-03-26 00:00:00,1.58,-2.54
1994-03-26 03:00:00,1.46,-4.70
1994-03-26 06:00:00,3.11,-3.88
1994-03-26 09:00:00,66.82,22.52
1994-03-26 12:00:00,206.60,26.94
1994-03-26 15:00:00,296.70,-110.10
1994-03-26 18:00:00,60.25,-37.61
1994-03-26 21:00:00,2.51,-22.53
1994-03-27 00:00:00,1.61,-20.87
1994-03-27 03:00:00,1.48,-12.22
1994-03-27 06:00:00,3.10,-10.91
1994-03-27 09:00:00,71.00,-5.46
1994-03-27 12:00:00,271.70,5.08
1994-03-27 15:00:00,215.40,-15.36
1994-03-27 18:00:00,43.03,-2.99
1994-03-27 21:00:00,3.05,-20.10
1994-03-28 00:00:00,1.45,-20.15
1994-03-28 03:00:00,1.48,-25.38
1994-03-28 06:00:00,2.83,-20.82
1994-03-28 09:00:00,85.50,-7.70
1994-03-28 12:00:00,280.40,-8.68
1994-03-28 15:00:00,312.60,-118.90
1994-03-28 18:00:00,52.05,-46.48
1994-03-28 21:00:00,2.77,-30.66
1994-03-29 00:00:00,1.43,-32.74
1994-03-29 03:00:00,1.43,-30.11
1994-03-29 06:00:00,4.95,-22.07
1994-03-29 09:00:00,67.60,-7.98
1994-03-29 12:00:00,246.50,6.41
1994-03-29 15:00:00,235.40,-8.24
1994-03-29 18:00:00,45.88,-1.32
1994-03-29 21:00:00,2.08,-0.69
1994-03-30 00:00:00,1.43,-0.83
1994-03-30 03:00:00,1.43,-2.67
1994-03-30 06:00:00,3.58,-1.65
1994-03-30 09:00:00,94.00,1.81
1994-03-30 12:00:00,263.60,-2.14
1994-03-30 15:00:00,224.90,-21.17
1994-03-30 18:00:00,56.45,-19.51
1994-03-30 21:00:00,2.88,-22.98
1994-03-31 00:00:00,1.43,-27.61
1994-03-31 03:00:00,1.43,-41.27
1994-03-31 06:00:00,4.60,-45.27
1994-03-31 09:00:00,95.20,-2.48
1994-03-31 12:00:00,289.60,21.88
1994-03-31 15:00:00,274.90,-36.95
1994-03-31 18:00:00,65.61,-2.01
1994-03-31 21:00:00,3.25,-15.58
1994-04-01 00:00:00,1.43,-24.14
1994-04-01 03:00:00,1.43,-16.18
1994-04-01 06:00:00,3.40,-7.37
1994-04-01 09:00:00,140.00,10.31
1994-04-01 12:00:00,199.90,4.80
1994-04-01 15:00:00,115.60,-7.45
1994-04-01 18:00:00,124.40,3.48
1994-04-01 21:00:00,2.88,-0.65
1994-04-02 00:00:00,1.43,-0.88
1994-04-02 03:00:00,1.43,-0.47
1994-04-02 06:00:00,5.84,0.39
1994-04-02 09:00:00,43.44,0.19
1994-04-02 12:00:00,109.80,-2.92
1994-04-02 15:00:00,82.60,-1.85
1994-04-02 18:00:00,32.62,0.13
1994-04-02 21:00:00,2.67,-0.33
1994-04-03 00:00:00,1.40,-0.51
1994-04-03 03:00:00,1.40,-0.44
1994-04-03 06:00:00,10.27,-0.37
1994-04-03 09:00:00,114.30,0.28
1994-04-03 12:00:00,359.80,2.46
1994-04-03 15:00:00,327.50,-48.25
1994-04-03 18:00:00,86.10,-32.97
1994-04-03 21:00:00,4.15,-23.30
1994-04-04 00:00:00,1.43,-5.06
1994-04-04 03:00:00,1.43,-17.36
1994-04-04 06:00:00,7.09,2.38
1994-04-04 09:00:00,94.80,1.08
1994-04-04 12:00:00,192.80,7.78
1994-04-04 15:00:00,160.60,3.33
1994-04-04 18:00:00,49.51,0.03
1994-04-04 21:00:00,3.54,-1.04
1994-04-05 00:00:00,1.43,-0.84
1994-04-05 03:00:00,1.43,-1.25
1994-04-05 06:00:00,9.35,-3.98